Find LES 5

NORAD ID: 2866 Int'l Des: 1967-066 Owner: SAMSO Country: US operational
MEOCIRCULAR

实时位置

正在加载3D地球...

关于 LES 5

正在加载描述...

即将过境

Passes for default location (London). Set your location on the main map for personalized predictions.

高度历史

Loading altitude history...

两行轨道根数

1 2866U 67066E 26106.82551844 -.00000046 00000-0 00000+0 0 9999
2 2866 2.4818 98.1745 0054546 211.7034 335.8023 1.09425187130367
Epoch: Apr 16, 2026 • Age: 22 hours

当前状态

高度 33200.0 km
速度 3.18 km/s
星下点 -0.41°S, 173.62°E
类型 other

Most Searched